This demonstration page uses our WeatherBlox Daily Observations layout. Learn more.

Left ArrowRight Arrow

53.62937, 11.41316

Hourly Observations for April 24, 2022

Temp ( °F °C ) Dew Point ( °F °C ) Humidity (%) Winds ( mph kmh ) Pressure ( in mb ) Visibility ( mi km ) Precip ( " mm )
12:20 am 00:20 Mostly Clear 41 5 36 2 81 81 NE 8 13 29.83 1010 30 48 N/A
12:50 am 00:50 Mostly Clear 43 6 37 3 81 81 NE 9 15 29.83 1010 30 48 N/A
1:20 am 01:20 Mostly Clear 43 6 39 4 87 87 NE 10 17 29.83 1010 30 48 N/A
1:50 am 01:50 Mostly Clear 43 6 39 4 87 87 NE 12 19 29.83 1010 30 48 N/A
2:20 am 02:20 Mostly Clear 41 5 37 3 87 87 NE 10 17 29.83 1010 30 48 N/A
2:50 am 02:50 Mostly Clear 41 5 37 3 87 87 NE 10 17 29.80 1009 30 48 N/A
3:20 am 03:20 Mostly Clear 41 5 37 3 87 87 NE 9 15 29.80 1009 30 48 N/A
3:50 am 03:50 Mostly Clear 39 4 36 2 87 87 ENE 9 15 29.80 1009 30 48 N/A
4:20 am 04:20 Mostly Clear 39 4 36 2 87 87 NE 8 13 29.80 1009 30 48 N/A
4:50 am 04:50 Mostly Clear 39 4 36 2 87 87 ENE 9 15 29.80 1009 30 48 N/A
5:20 am 05:20 Mostly Clear 39 4 37 3 93 93 NE 9 15 29.80 1009 30 48 N/A
5:50 am 05:50 Mostly Clear 39 4 37 3 93 93 NE 7 11 29.80 1009 30 48 N/A
6:20 am 06:20 Mostly Sunny 41 5 37 3 87 87 NE 8 13 29.80 1009 30 48 N/A
6:50 am 06:50 Mostly Sunny 43 6 39 4 87 87 NE 9 15 29.80 1009 30 48 N/A
7:20 am 07:20 Mostly Sunny 43 6 41 5 93 93 NE 12 19 29.80 1009 30 48 N/A
7:50 am 07:50 Partly Cloudy 45 7 41 5 87 87 NE 13 20 29.80 1009 30 48 N/A
8:20 am 08:20 Partly Cloudy 46 8 41 5 82 82 NE 16 26 29.80 1009 30 48 N/A
8:50 am 08:50 Partly Cloudy 46 8 41 5 82 82 NE 14 22 29.80 1009 30 48 N/A
9:20 am 09:20 Partly Cloudy 48 9 41 5 76 76 NE 14 22 29.77 1008 30 48 N/A
9:50 am 09:50 Mostly Sunny 50 10 41 5 71 71 NE 15 24 29.77 1008 30 48 N/A
10:20 am 10:20 Mostly Sunny 48 9 39 4 71 71 NE 17 28 29.77 1008 30 48 N/A
10:50 am 10:50 Partly Cloudy 50 10 41 5 71 71 NNE 16 26 29.77 1008 30 48 N/A
11:20 am 11:20 Partly Cloudy 48 9 39 4 71 71 NNE 16 26 29.77 1008 30 48 N/A
11:50 am 11:50 Partly Cloudy 50 10 41 5 71 71 NNE 15 24 29.77 1008 30 48 N/A
12:20 pm 12:20 Partly Cloudy 50 10 41 5 71 71 NNE 17 28 29.77 1008 30 48 N/A
12:50 pm 12:50 Partly Cloudy 50 10 41 5 71 71 N 15 24 29.77 1008 30 48 N/A
1:20 pm 13:20 Mostly Cloudy 48 9 41 5 76 76 NNE 20 31 29.77 1008 30 48 N/A
1:50 pm 13:50 Mostly Cloudy 48 9 41 5 76 76 NNE 21 33 29.77 1008 30 48 N/A
2:20 pm 14:20 Mostly Cloudy 48 9 41 5 76 76 NE 20 31 29.77 1008 30 48 N/A
2:50 pm 14:50 Mostly Cloudy 50 10 41 5 71 71 NE 21 33 29.77 1008 30 48 N/A
3:20 pm 15:20 Mostly Cloudy 48 9 41 5 76 76 NE 22 35 29.77 1008 30 48 N/A
3:50 pm 15:50 Mostly Cloudy 48 9 41 5 76 76 NNE 18 30 29.77 1008 30 48 N/A
4:20 pm 16:20 Mostly Sunny 48 9 41 5 76 76 NNE 18 30 29.77 1008 30 48 N/A
4:50 pm 16:50 Mostly Sunny 50 10 43 6 76 76 NNE 18 30 29.77 1008 30 48 N/A
5:20 pm 17:20 Mostly Sunny 50 10 43 6 76 76 NNE 17 28 29.77 1008 30 48 N/A
5:50 pm 17:50 Mostly Sunny 50 10 41 5 71 71 NNE 18 30 29.77 1008 30 48 N/A
6:20 pm 18:20 Mostly Sunny 48 9 41 5 76 76 NNE 16 26 29.77 1008 30 48 N/A
6:50 pm 18:50 Mostly Cloudy 46 8 41 5 82 82 NNE 17 28 29.77 1008 30 48 N/A
7:20 pm 19:20 Mostly Sunny 46 8 41 5 82 82 NNE 14 22 29.77 1008 30 48 N/A
7:50 pm 19:50 Mostly Sunny 46 8 41 5 82 82 NE 15 24 29.77 1008 7 11 N/A
8:20 pm 20:20 Mostly Sunny 46 8 39 4 76 76 NE 16 26 29.77 1008 7 11 N/A
8:50 pm 20:50 Mostly Clear 46 8 39 4 76 76 NE 14 22 29.80 1009 30 48 N/A
9:20 pm 21:20 Mostly Cloudy 45 7 41 5 87 87 NE 13 20 29.80 1009 30 48 N/A
9:50 pm 21:50 Mostly Cloudy 45 7 39 4 81 81 NE 13 20 29.80 1009 30 48 N/A
10:20 pm 22:20 Mostly Cloudy 45 7 39 4 81 81 NE 10 17 29.83 1010 30 48 N/A
10:50 pm 22:50 Cloudy 45 7 39 4 81 81 NE 13 20 29.83 1010 30 48 N/A
11:20 pm 23:20 Cloudy 45 7 39 4 81 81 NE 12 19 29.83 1010 30 48 N/A
11:50 pm 23:50 Cloudy 45 7 39 4 81 81 NE 10 17 29.83 1010 30 48 N/A

Powered by AerisWeather